Location: Charlottesville
(38.0290°N, 78.4770°W)
Time: 15:19:06
(UTC-04:00)

Vanguard 2 Rocket - Visible Passes

Search period start: 22 October 2017 00:00
Search period end: 01 November 2017 00:00
Orbit: 555 x 3327 km, 32.9° (Epoch: 21 October)

Date Brightness Start Highest point End Pass type
(mag) Time Alt. Az. Time Alt. Az. Time Alt. Az.
22 Oct 10.3 18:27:49 10° W 18:37:22 33° SSW 18:51:44 10° SSE visible
22 Oct 11.1 20:47:32 10° WSW 20:53:23 13° SW 20:59:58 10° SSW visible
23 Oct 10.9 19:44:32 10° WSW 19:52:34 18° SSW 20:02:43 10° S visible
24 Oct 10.6 18:43:37 10° WSW 18:51:55 23° SSW 19:03:27 10° SSE visible
26 Oct 11.0 19:01:06 10° WSW 19:06:33 14° SSW 19:13:11 10° S visible
